TimeMDT,TemperatureF,Dew PointF,Humidity,Sea Level PressureIn,VisibilityMPH,Wind Direction,Wind SpeedMPH,Gust SpeedMPH,PrecipitationIn,Events,Conditions,WindDirDegrees,DateUTC
12:53 AM,54.0,48.0,80,29.64,10.0,East,5.8,-,0.00,,Overcast,100,2013-09-27 06:53:00
1:53 AM,54.0,46.9,77,29.65,10.0,West,5.8,-,0.01,,Overcast,260,2013-09-27 07:53:00
2:53 AM,48.9,42.1,77,29.70,8.0,WNW,8.1,-,0.01,Rain,Rain,290,2013-09-27 08:53:00
3:25 AM,48.2,42.8,82,29.91,10.0,WNW,15.0,19.6,0.00,,Overcast,290,2013-09-27 09:25:00
3:53 AM,46.9,43.0,86,29.72,4.0,NW,6.9,-,0.04,Rain,Rain,310,2013-09-27 09:53:00
4:05 AM,46.4,42.8,87,29.91,5.0,Calm,Calm,-,0.02,Rain,Rain,0,2013-09-27 10:05:00
4:53 AM,46.0,41.0,83,29.74,8.0,East,3.5,-,0.06,Rain,Light Rain,80,2013-09-27 10:53:00
5:53 AM,46.0,42.1,86,29.76,10.0,Calm,Calm,-,0.00,,Overcast,0,2013-09-27 11:53:00
6:53 AM,46.9,43.0,86,29.77,10.0,NNW,3.5,-,N/A,,Overcast,340,2013-09-27 12:53:00
7:53 AM,45.0,39.9,82,29.81,10.0,Calm,Calm,-,N/A,,Overcast,0,2013-09-27 13:53:00
8:53 AM,45.0,39.0,80,29.82,10.0,South,4.6,-,0.00,,Overcast,180,2013-09-27 14:53:00
9:53 AM,46.0,37.9,73,29.83,10.0,SW,10.4,-,N/A,,Overcast,220,2013-09-27 15:53:00
10:53 AM,48.0,37.9,68,29.85,10.0,SW,9.2,-,N/A,,Overcast,220,2013-09-27 16:53:00
11:53 AM,50.0,34.0,54,29.88,10.0,SSW,13.8,-,N/A,,Mostly Cloudy,210,2013-09-27 17:53:00
12:53 PM,53.1,28.9,40,29.88,10.0,SSW,10.4,-,N/A,,Clear,200,2013-09-27 18:53:00
1:53 PM,53.1,30.0,41,29.87,10.0,West,6.9,18.4,N/A,,Mostly Cloudy,270,2013-09-27 19:53:00
2:53 PM,53.1,25.0,34,29.89,10.0,WNW,8.1,-,N/A,,Overcast,300,2013-09-27 20:53:00
3:53 PM,55.9,23.0,28,29.89,10.0,WSW,12.7,18.4,N/A,,Partly Cloudy,240,2013-09-27 21:53:00
4:53 PM,55.9,21.9,27,29.92,10.0,NW,15.0,19.6,N/A,,Scattered Clouds,310,2013-09-27 22:53:00
5:09 PM,55.4,21.2,26,30.05,10.0,Variable,6.9,18.4,N/A,,Scattered Clouds,0,2013-09-27 23:09:00
5:53 PM,53.1,30.0,41,29.96,10.0,North,9.2,-,N/A,,Overcast,10,2013-09-27 23:53:00
6:53 PM,48.9,30.0,48,29.98,10.0,NNE,3.5,-,N/A,,Partly Cloudy,30,2013-09-28 00:53:00
7:53 PM,43.0,34.0,71,30.04,10.0,Calm,Calm,-,N/A,,Scattered Clouds,0,2013-09-28 01:53:00
8:53 PM,41.0,35.1,79,30.08,10.0,SE,3.5,-,N/A,,Mostly Cloudy,140,2013-09-28 02:53:00
9:53 PM,39.9,33.1,77,30.11,10.0,North,3.5,-,N/A,,Clear,350,2013-09-28 03:53:00
10:53 PM,39.0,32.0,76,30.12,10.0,Calm,Calm,-,N/A,,Clear,0,2013-09-28 04:53:00
11:53 PM,35.1,30.9,85,30.12,10.0,Calm,Calm,-,N/A,,Clear,0,2013-09-28 05:53:00